Location: Bittkow
(50.3000°N, 19.0000°E)
Time: 04:25:17
(UTC+00:00)

Cosmos 1733 Rocket - Visible Passes

Search period start: 04 August 2021 00:00
Search period end: 14 August 2021 00:00
Orbit: 604 x 627 km, 82.5° (Epoch: 03 August)

Date Brightness Start Highest point End Pass type
(mag) Time Alt. Az. Time Alt. Az. Time Alt. Az.
04 Aug 3.4 00:14:16 43° WSW 00:15:19 54° WNW 00:19:42 10° N visible
04 Aug 4.3 22:53:28 29° ESE 22:53:59 30° E 22:57:52 10° NNE visible
05 Aug 4.1 00:30:33 28° WSW 00:31:44 33° WNW 00:35:47 10° N visible
05 Aug 3.5 23:09:45 48° ESE 23:10:08 50° E 23:14:27 10° NNE visible
06 Aug 4.8 00:46:50 18° W 00:48:14 21° WNW 00:51:39 10° NNW visible
06 Aug 5.5 21:48:55 11° E 21:49:21 11° E 21:50:24 10° ENE visible
06 Aug 2.9 23:26:00 75° S 23:26:23 86° E 23:30:51 10° N visible
07 Aug 5.3 01:03:05 11° W 01:04:51 14° WNW 01:07:05 10° NNW visible
07 Aug 5.0 22:05:10 18° E 22:05:20 18° E 22:08:19 10° NE visible
07 Aug 3.3 23:42:15 54° WSW 23:42:42 57° WNW 23:47:06 10° N visible
08 Aug 4.3 22:21:25 29° E 22:21:25 29° E 22:25:13 10° NNE visible
08 Aug 4.1 23:58:30 33° W 23:59:06 34° WNW 00:03:11 10° N visible
09 Aug 3.6 22:37:39 48° E 22:37:39 48° E 22:41:49 10° NNE visible
10 Aug 4.8 00:14:44 20° W 00:15:36 22° WNW 00:19:04 10° NNW visible
10 Aug 5.5 21:16:48 10° E 21:16:48 10° E 21:17:18 10° ENE visible
10 Aug 3.0 22:53:53 81° ENE 22:53:53 81° ENE 22:58:14 10° NNE visible
11 Aug 5.3 00:30:57 13° W 00:32:13 14° WNW 00:34:33 10° NNW visible
11 Aug 5.0 21:33:01 17° E 21:33:01 17° E 21:35:37 10° NE visible
11 Aug 3.3 23:10:05 59° WNW 23:10:05 59° WNW 23:14:29 10° N visible
12 Aug 4.4 21:49:13 27° ENE 21:49:13 27° ENE 21:52:34 10° NNE visible
12 Aug 4.1 23:26:18 35° WNW 23:26:29 35° WNW 23:30:35 10° N visible
13 Aug 3.7 22:05:25 44° ENE 22:05:25 44° ENE 22:09:11 10° NNE visible
13 Aug 4.8 23:42:30 22° WNW 23:42:59 22° WNW 23:46:29 10° NNW visible
